Погода в Пронине

Россия / Волгоградская область     49°12′27″N   42°12′58″E
темп.,
°C
ветер,
м/с
пор.,
м/с
влажн.,
%
обл.,
%
осадки,
мм/ч
давл.,
гПа
погр.,
м
17 августа, ср
ср1700:00+29в9162257 0.0 1011484
03:00+27всв81525100 0.0 1011408
06:00+25всв8142795 0.0 1010357
09:00+32вюв912205 0.0 10091204
12:00+36юв892197 0.0 10082281
15:00+37юв551931 0.0 10072736
18:00+36юв34212 0.0 10062441
21:00+30ю333156 0.0 100640
18 августа, чт
чт1800:00+26ю233817 0.0 100724
03:00+24зюз2248100 0.0 100724
06:00+25юв1249100 0.0 100721
09:00+27ююз2452100 0.9 1008266
12:00+32зюз3531100 0.0 10081421
15:00+35вюв4523100 0.0 10072965
18:00+33юв6627100 0.1 10071003
21:00+25в3364100 1.7 101069
19 августа, пт
пт1900:00+22св71272100 0.4 1010312
03:00+20ссв61067100 0.7 1009202
06:00+22вюв51155100 0.0 1010330
09:00+27в6827100 0.0 1010794
12:00+29св81226100 0.0 10111794
15:00+31ююв4919100 0.0 1009700
18:00+31юв7112657 0.0 10101422
21:00+28в51125100 0.0 1012290
20 августа, сб
сб2000:00+28вюв81421100 0.0 1014790
03:00+24вюв12183592 0.1 10161178
06:00+24в91634100 0.0 1018992
09:00+29вюв121722100 0.0 10181621
12:00+31вюв121620100 0.0 10172355
15:00+32вюв121520100 0.0 10173240
18:00+29в111619100 0.0 10181759
21:00+27в111719100 0.0 1019863
21 августа, вс
вс2100:00+25вюв91514100 0.0 1020714
03:00+23вюв71520100 0.0 1020835
06:00+22в71520100 0.0 1020687
09:00+26вюв91215100 0.0 10201157
12:00+30вюв91110100 0.0 10192015
15:00+30вюв81011100 0.0 10182310
18:00+30вюв71015100 0.0 10181953
21:00+24в6142444 0.0 1018375